User: anonymous   Login
Location: Columbia
(38.9520°N, 92.3340°W)
Time: 05:05:41
(UTC-05:00)
Language:

Iridium 52 - Orbit

View from above orbital plane
View from above orbital plane
View from above satellite
View from above satellite

Ground track
Ground track

The orbit data is extracted from the following two-line orbital elements,

1 25169U 98010A   15243.46967631  .00000042  00000-0  79842-5 0  9999
2 25169 086.3926 264.4278 0002324 092.7884 020.5997 14.34217353917799
Epoch (UTC): 31 August 2015 11:16:20
Eccentricity: 0.0002324
inclination: 86.3926°
perigee height: 776 km
apogee height: 779 km
right ascension of ascending node: 264.4278°
argument of perigee: 92.7884°
revolutions per day: 14.34217353
mean anomaly at epoch: 20.5997°
orbit number at epoch: 91779

The dashed part of the orbit path shows where the satellite is in the earth's shadow,  

DLR